Glens Falls, NY

10:57 AM EST on November 21, 2019 (GMT -0500)
Bennett Memorial

Weather History for KGFL - September, 2019

Change the Weather History Date:

Sunday, September 8, 2019

  Actual Average Record
Temperature  
Mean Temperature 57 °F 62 °F  
Max Temperature 69 °F 74 °F 90 °F (1959)
Min Temperature 44 °F 50 °F 35 °F (1978)
Degree Days  
Heating Degree Days 8 5  
Month to date heating degree days 35 31  
Since 1 July heating degree days 63 97  
Cooling Degree Days 0 1  
Month to date cooling degree days 3 13  
Year to date cooling degree days 398 340  
Growing Degree Days 6 (Base 50)    
Moisture  
Dew Point 48 °F    
Average Humidity 74    
Maximum Humidity 100    
Minimum Humidity 47    
Precipitation  
Precipitation 0.00 in 0.10 in 1.69 in (1981)
Month to date precipitation 0.91 0.81  
Year to date precipitation 29.70 26.62  
Sea Level Pressure  
Sea Level Pressure 30.01 in    
Wind  
Wind Speed 3 mph (NNW)    
Max Wind Speed 16 mph    
Max Gust Speed 22 mph    
Visibility 9 miles    
Events      
T = Trace of Precipitation, MM = Missing Value Source: NWS Daily Summary

Daily Weather History Graph

Daily Weather History Graph

Search for Another Location

Airport or City:

Astronomy

Sep. 08, 2019 Rise Set
Actual Time 6:25 AM EDT 7:17 PM EDT
Civil Twilight 5:56 AM EDT 7:46 PM EDT
Nautical Twilight 5:22 AM EDT 8:20 PM EDT
Astronomical Twilight 4:46 AM EDT 8:56 PM EDT
Moon 4:32 PM EDT (9/8) 12:54 AM EDT (9/8)
Length of Visible Light 13h 49m
Length of Day
12h 51m
Waxing Gibbous, 75% of the Moon is Illuminated
Sep 8
Waxing Gibbous
Sep 14
Full
Sep 21
Last Quarter
Sep 28
New
Oct 5
First Quarter

Hourly Weather History & Observations

Time (EDT) Temp. Windchill Dew Point Humidity Pressure Visibility Wind Dir Wind Speed Gust Speed Precip Events Conditions
12:53 AM 57.0 °F - 48.9 °F 74% 29.86 in 10.0 mi South 4.6 mph - N/A   Clear
1:53 AM 48.9 °F - 48.0 °F 97% 29.88 in 10.0 mi South 3.5 mph - N/A   Clear
2:53 AM 51.1 °F - 48.0 °F 89% 29.88 in 10.0 mi Calm Calm - N/A   Clear
3:53 AM 46.9 °F - 46.0 °F 97% 29.89 in 5.0 mi Calm Calm - N/A   Clear
4:02 AM 46.0 °F - 46.0 °F 100% 29.89 in 1.8 mi Calm Calm - N/A   Partly Cloudy
4:06 AM 46.0 °F - 45.0 °F 96% 29.89 in 0.8 mi Calm Calm - N/A   Mist
4:33 AM 46.9 °F - 46.0 °F 97% 29.89 in 10.0 mi West 3.5 mph - N/A   Partly Cloudy
4:53 AM 44.1 °F 40.8 °F 43.0 °F 96% 29.91 in 4.0 mi SW 5.8 mph - N/A   Clear
5:00 AM 46.9 °F - 45.0 °F 93% 29.90 in 2.5 mi WSW 6.9 mph - N/A   Clear
5:53 AM 46.9 °F - 46.0 °F 97% 29.93 in 10.0 mi Calm Calm - N/A   Clear
6:53 AM 46.0 °F - 45.0 °F 96% 29.96 in 10.0 mi Calm Calm - N/A   Clear
7:53 AM 51.1 °F - 48.9 °F 92% 29.99 in 10.0 mi Calm Calm - N/A   Mostly Cloudy
8:53 AM 55.9 °F - 52.0 °F 87% 30.00 in 10.0 mi Calm Calm - N/A   Mostly Cloudy
9:53 AM 63.0 °F - 51.1 °F 65% 30.01 in 10.0 mi Variable 3.5 mph - N/A   Mostly Cloudy
10:53 AM 64.0 °F - 48.9 °F 58% 30.02 in 10.0 mi Calm Calm - N/A   Overcast
11:53 AM 66.0 °F - 50.0 °F 56% 30.02 in 10.0 mi Variable 3.5 mph - N/A   Mostly Cloudy
12:53 PM 68.0 °F - 50.0 °F 52% 30.03 in 10.0 mi Calm Calm - N/A   Mostly Cloudy
1:53 PM 66.9 °F - 51.1 °F 57% 30.03 in 10.0 mi ESE 3.5 mph - N/A   Overcast
2:53 PM 68.0 °F - 48.9 °F 50% 30.04 in 10.0 mi NE 8.1 mph - N/A   Overcast
3:53 PM 69.1 °F - 48.9 °F 49% 30.05 in 10.0 mi NE 5.8 mph - N/A   Overcast
4:53 PM 66.9 °F - 48.9 °F 52% 30.07 in 10.0 mi North 11.5 mph - N/A   Scattered Clouds
5:53 PM 64.9 °F - 48.9 °F 56% 30.09 in 10.0 mi NNW 6.9 mph - N/A   Mostly Cloudy
6:53 PM 63.0 °F - 48.0 °F 58% 30.11 in 10.0 mi NNE 3.5 mph - N/A   Clear
7:53 PM 57.9 °F - 51.1 °F 78% 30.13 in 10.0 mi Calm Calm - N/A   Partly Cloudy
8:53 PM 55.0 °F - 51.1 °F 86% 30.16 in 10.0 mi Calm Calm - N/A   Partly Cloudy
9:53 PM 60.1 °F - 48.9 °F 67% 30.16 in 10.0 mi NNW 3.5 mph - N/A   Clear
10:53 PM 55.9 °F - 48.9 °F 77% 30.19 in 10.0 mi NNW 5.8 mph - N/A   Clear
11:53 PM 51.1 °F - 48.9 °F 92% 30.20 in 10.0 mi NNW 3.5 mph - N/A   Clear